Find Starlink 33972

NORAD ID: 63893 Int'l Des: 2025-095 Owner: SPXS Country: US Constellation: starlink operational
LEOCIRCULAR

現在のビュー

3D地球を読み込み中...

About Starlink 33972

Starlink 33972 (NORAD 63893) is a starlink constellation satellite (v2 mini) launched May 10, 2025 by SPXS of US. It operates in LEO, CIRCULAR orbit with a mass of 575.00 kg.

次回通過

Passes for default location (London). Set your location on the main map for personalized predictions.

高度履歴

Loading altitude history...

軌道要素

1 63893U 25095D 26263.12641890 .00005377 00000-0 20477-3 0 9995
2 63893 42.9990 158.2044 0001305 268.3076 91.7626 15.27580943 77525
Epoch: Sep 20, 2026 • Age: 24 hours

現在のステータス

高度 483.8 km
遠地点 / 近地点 N/A
速度 7.63 km/s
衛星直下点 27.98°N, 145.71°E
打ち上げ日 May 10, 2025
運用期間 1.3 years
タイプ internet

技術仕様

分類 Payload
質量 575.00 kg
乾燥質量 530.00 kg
長さ 0.30 m
スパン 29.00 m
形状 ? Box + pan
製造者 SPXS
バスタイプ Starlink V2MO
フェーズステータス In Orbit
所有者/国 SPXS/US

Most Searched